Year,Month,Day,Hour,Minute,Value (Times are PST for temperature in C)
2016,06,01,00,00,16.20
2016,06,01,00,01,16.20
2016,06,01,00,02,16.20
2016,06,01,00,03,16.20
2016,06,01,00,04,16.20
2016,06,01,00,05,16.20
2016,06,01,00,06,16.20
2016,06,01,00,07,16.10
2016,06,01,00,08,16.10
2016,06,01,00,09,16.10
2016,06,01,00,10,16.10
2016,06,01,00,11,16.10
2016,06,01,00,12,16.10
2016,06,01,00,13,16.10
2016,06,01,00,14,16.10
2016,06,01,00,15,16.10
2016,06,01,00,16,15.90
2016,06,01,00,17,15.90
2016,06,01,00,18,15.90
2016,06,01,00,19,15.80
2016,06,01,00,20,15.80
2016,06,01,00,21,15.80
2016,06,01,00,22,15.80
2016,06,01,00,23,15.80
2016,06,01,00,24,15.70
2016,06,01,00,25,15.70
2016,06,01,00,26,15.70
2016,06,01,00,27,15.70
2016,06,01,00,28,15.70
2016,06,01,00,29,15.70
2016,06,01,00,30,15.70
2016,06,01,00,31,15.60
2016,06,01,00,32,15.60
2016,06,01,00,33,15.60
2016,06,01,00,34,15.60
2016,06,01,00,35,15.60
2016,06,01,00,36,15.60
2016,06,01,00,37,15.60
2016,06,01,00,38,15.60
2016,06,01,00,39,15.60
2016,06,01,00,40,15.60
2016,06,01,00,41,15.60
2016,06,01,00,42,15.60
2016,06,01,00,43,15.60
2016,06,01,00,44,15.60
2016,06,01,00,45,15.60
2016,06,01,00,46,15.60
2016,06,01,00,47,15.60
2016,06,01,00,48,15.60
2016,06,01,00,49,15.60
2016,06,01,00,50,15.60
2016,06,01,00,51,15.50
2016,06,01,00,52,15.50
2016,06,01,00,53,15.50
2016,06,01,00,54,15.50
2016,06,01,00,55,15.50
2016,06,01,00,56,15.50
2016,06,01,00,57,15.50
2016,06,01,00,58,15.60
2016,06,01,00,59,15.60
2016,06,01,01,00,15.60
2016,06,01,01,01,15.60
2016,06,01,01,02,15.60
2016,06,01,01,03,15.60
2016,06,01,01,04,15.60
2016,06,01,01,05,15.60
2016,06,01,01,06,15.60
2016,06,01,01,07,15.60
2016,06,01,01,08,15.60
2016,06,01,01,09,15.60
2016,06,01,01,10,15.60
2016,06,01,01,11,15.60
2016,06,01,01,12,15.60
2016,06,01,01,13,15.60
2016,06,01,01,14,15.60
2016,06,01,01,15,15.60
2016,06,01,01,16,15.60
2016,06,01,01,17,15.60
2016,06,01,01,18,15.60
2016,06,01,01,19,15.60
2016,06,01,01,20,15.60
2016,06,01,01,21,15.60
2016,06,01,01,22,15.60
2016,06,01,01,23,15.60
2016,06,01,01,24,15.60
2016,06,01,01,25,15.70
2016,06,01,01,26,15.70
2016,06,01,01,27,15.70
2016,06,01,01,28,15.70
2016,06,01,01,29,15.70
2016,06,01,01,30,15.70
2016,06,01,01,31,15.70
2016,06,01,01,32,15.60
2016,06,01,01,33,15.60
2016,06,01,01,34,15.60
2016,06,01,01,35,15.60
2016,06,01,01,36,15.60
2016,06,01,01,37,15.60
2016,06,01,01,38,15.60
2016,06,01,01,39,15.60
2016,06,01,01,40,15.60
2016,06,01,01,41,15.50
2016,06,01,01,42,15.50
2016,06,01,01,43,15.50
2016,06,01,01,44,15.50
2016,06,01,01,45,15.50
2016,06,01,01,46,15.50
2016,06,01,01,47,15.50
2016,06,01,01,48,15.50
2016,06,01,01,49,15.50
2016,06,01,01,50,15.40
2016,06,01,01,51,15.40
2016,06,01,01,52,15.40
2016,06,01,01,53,15.40
2016,06,01,01,54,15.30
2016,06,01,01,55,15.30
2016,06,01,01,56,15.30
2016,06,01,01,57,15.30
2016,06,01,01,58,15.30
2016,06,01,01,59,15.30
2016,06,01,02,00,15.30
2016,06,01,02,01,15.30
2016,06,01,02,02,15.30
2016,06,01,02,03,15.30
2016,06,01,02,04,15.30
2016,06,01,02,05,15.30
2016,06,01,02,06,15.30
2016,06,01,02,07,15.30
2016,06,01,02,08,15.30
2016,06,01,02,09,15.40
2016,06,01,02,10,15.40
2016,06,01,02,11,15.40
2016,06,01,02,12,15.50
2016,06,01,02,13,15.50
2016,06,01,02,14,15.60
2016,06,01,02,15,15.70
2016,06,01,02,16,15.80
2016,06,01,02,17,15.80
2016,06,01,02,18,15.90
2016,06,01,02,19,16.00
2016,06,01,02,20,16.10
2016,06,01,02,21,16.20
2016,06,01,02,22,16.30
2016,06,01,02,23,16.40
2016,06,01,02,24,16.50
2016,06,01,02,25,16.70
2016,06,01,02,26,16.70
2016,06,01,02,27,16.80
2016,06,01,02,28,16.90
2016,06,01,02,29,17.00
2016,06,01,02,30,17.00
2016,06,01,02,31,17.20
2016,06,01,02,32,17.30
2016,06,01,02,33,17.30
2016,06,01,02,34,17.40
2016,06,01,02,35,17.40
2016,06,01,02,36,17.50
2016,06,01,02,37,17.50
2016,06,01,02,38,17.60
2016,06,01,02,39,17.60
2016,06,01,02,40,17.60
2016,06,01,02,41,17.70
2016,06,01,02,42,17.70
2016,06,01,02,43,17.70
2016,06,01,02,44,17.70
2016,06,01,02,45,17.70
2016,06,01,02,46,17.70
2016,06,01,02,47,17.70
2016,06,01,02,48,17.70
2016,06,01,02,49,17.70
2016,06,01,02,50,17.70
2016,06,01,02,51,17.70
2016,06,01,02,52,17.60
2016,06,01,02,53,17.60
2016,06,01,02,54,17.70
2016,06,01,02,55,17.70
2016,06,01,02,56,17.70
2016,06,01,02,57,17.70
2016,06,01,02,58,17.70
2016,06,01,02,59,17.70
2016,06,01,03,00,17.70
2016,06,01,03,01,17.70
2016,06,01,03,02,17.70
2016,06,01,03,03,17.70
2016,06,01,03,04,17.70
2016,06,01,03,05,17.70
2016,06,01,03,06,17.70
2016,06,01,03,07,17.70
2016,06,01,03,08,17.70
2016,06,01,03,09,17.70
2016,06,01,03,10,17.70
2016,06,01,03,11,17.60
2016,06,01,03,12,17.60
2016,06,01,03,13,17.60
2016,06,01,03,14,17.60
2016,06,01,03,15,17.50
2016,06,01,03,16,17.50
2016,06,01,03,17,17.40
2016,06,01,03,18,17.40
2016,06,01,03,19,17.30
2016,06,01,03,20,17.30
2016,06,01,03,21,17.20
2016,06,01,03,22,17.10
2016,06,01,03,23,17.00
2016,06,01,03,24,16.90
2016,06,01,03,25,16.80
2016,06,01,03,26,16.70
2016,06,01,03,27,16.70
2016,06,01,03,28,16.60
2016,06,01,03,29,16.60
2016,06,01,03,30,16.50
2016,06,01,03,31,16.40
2016,06,01,03,32,16.40
2016,06,01,03,33,16.30
2016,06,01,03,34,16.30
2016,06,01,03,35,16.20
2016,06,01,03,36,16.10
2016,06,01,03,37,16.10
2016,06,01,03,38,16.00
2016,06,01,03,39,15.90
2016,06,01,03,40,15.80
2016,06,01,03,41,15.70
2016,06,01,03,42,15.60
2016,06,01,03,43,15.50
2016,06,01,03,44,15.30
2016,06,01,03,45,15.30
2016,06,01,03,46,15.20
2016,06,01,03,47,15.10
2016,06,01,03,48,15.10
2016,06,01,03,49,15.00
2016,06,01,03,50,15.00
2016,06,01,03,51,14.90
2016,06,01,03,52,14.90
2016,06,01,03,53,14.80
2016,06,01,03,54,14.80
2016,06,01,03,55,14.80
2016,06,01,03,56,14.80
2016,06,01,03,57,14.80
2016,06,01,03,58,14.70
2016,06,01,03,59,14.70
2016,06,01,04,00,14.70
2016,06,01,04,01,14.70
2016,06,01,04,02,14.70
2016,06,01,04,03,14.70
2016,06,01,04,04,14.70
2016,06,01,04,05,14.70
2016,06,01,04,06,14.70
2016,06,01,04,07,14.70
2016,06,01,04,08,14.80
2016,06,01,04,09,14.80
2016,06,01,04,10,14.80
2016,06,01,04,11,14.80
2016,06,01,04,12,14.80
2016,06,01,04,13,14.80
2016,06,01,04,14,14.80
2016,06,01,04,15,14.80
2016,06,01,04,16,14.80
2016,06,01,04,17,14.80
2016,06,01,04,18,14.80
2016,06,01,04,19,14.80
2016,06,01,04,20,14.80
2016,06,01,04,21,14.80
2016,06,01,04,22,14.80
2016,06,01,04,23,14.80
2016,06,01,04,24,14.80
2016,06,01,04,25,14.80
2016,06,01,04,26,14.80
2016,06,01,04,27,14.80
2016,06,01,04,28,14.80
2016,06,01,04,29,14.80
2016,06,01,04,30,14.80
2016,06,01,04,31,14.80
2016,06,01,04,32,14.70
2016,06,01,04,33,14.70
2016,06,01,04,34,14.70
2016,06,01,04,35,14.70
2016,06,01,04,36,14.60
2016,06,01,04,37,14.60
2016,06,01,04,38,14.60
2016,06,01,04,39,14.50
2016,06,01,04,40,14.50
2016,06,01,04,41,14.50
2016,06,01,04,42,14.50
2016,06,01,04,43,14.50
2016,06,01,04,44,14.50
2016,06,01,04,45,14.50
2016,06,01,04,46,14.50
2016,06,01,04,47,14.50
2016,06,01,04,48,14.50
2016,06,01,04,49,14.50
2016,06,01,04,50,14.50
2016,06,01,04,51,14.50
2016,06,01,04,52,14.50
2016,06,01,04,53,14.50
2016,06,01,04,54,14.50
2016,06,01,04,55,14.50
2016,06,01,04,56,14.50
2016,06,01,04,57,14.50
2016,06,01,04,58,14.50
2016,06,01,04,59,14.40
2016,06,01,05,00,14.40
2016,06,01,05,01,14.40
2016,06,01,05,02,14.40
2016,06,01,05,03,14.30
2016,06,01,05,04,14.30
2016,06,01,05,05,14.30
2016,06,01,05,06,14.30
2016,06,01,05,07,14.30
2016,06,01,05,08,14.30
2016,06,01,05,09,14.20
2016,06,01,05,10,14.20
2016,06,01,05,11,14.20
2016,06,01,05,12,14.20
2016,06,01,05,13,14.20
2016,06,01,05,14,14.20
2016,06,01,05,15,14.20
2016,06,01,05,16,14.20
2016,06,01,05,17,14.10
2016,06,01,05,18,14.10
2016,06,01,05,19,14.10
2016,06,01,05,20,14.00
2016,06,01,05,21,14.00
2016,06,01,05,22,14.00
2016,06,01,05,23,14.00
2016,06,01,05,24,14.00
2016,06,01,05,25,14.00
2016,06,01,05,26,14.00
2016,06,01,05,27,14.00
2016,06,01,05,28,14.00
2016,06,01,05,29,14.00
2016,06,01,05,30,14.00
2016,06,01,05,31,14.00
2016,06,01,05,32,14.10
2016,06,01,05,33,14.10
2016,06,01,05,34,14.10
2016,06,01,05,35,14.10
2016,06,01,05,36,14.10
2016,06,01,05,37,14.20
2016,06,01,05,38,14.20
2016,06,01,05,39,14.20
2016,06,01,05,40,14.30
2016,06,01,05,41,14.40
2016,06,01,05,42,14.50
2016,06,01,05,43,14.60
2016,06,01,05,44,14.70
2016,06,01,05,45,14.80
2016,06,01,05,46,15.00
2016,06,01,05,47,15.10
2016,06,01,05,48,15.30
2016,06,01,05,49,15.40
2016,06,01,05,50,15.50
2016,06,01,05,51,15.50
2016,06,01,05,52,15.60
2016,06,01,05,53,15.70
2016,06,01,05,54,15.70
2016,06,01,05,55,15.80
2016,06,01,05,56,15.80
2016,06,01,05,57,15.70
2016,06,01,05,58,15.70
2016,06,01,05,59,15.60
2016,06,01,06,00,15.60
2016,06,01,06,01,15.50
2016,06,01,06,02,15.50
2016,06,01,06,03,15.50
2016,06,01,06,04,15.30
2016,06,01,06,05,15.30
2016,06,01,06,06,15.20
2016,06,01,06,07,15.10
2016,06,01,06,08,15.10
2016,06,01,06,09,15.00
2016,06,01,06,10,15.00
2016,06,01,06,11,15.00
2016,06,01,06,12,14.90
2016,06,01,06,13,14.90
2016,06,01,06,14,14.90
2016,06,01,06,15,14.80
2016,06,01,06,16,14.80
2016,06,01,06,17,14.70
2016,06,01,06,18,14.70
2016,06,01,06,19,14.60
2016,06,01,06,20,14.60
2016,06,01,06,21,14.50
2016,06,01,06,22,14.40
2016,06,01,06,23,14.40
2016,06,01,06,24,14.30
2016,06,01,06,25,14.20
2016,06,01,06,26,14.20
2016,06,01,06,27,14.20
2016,06,01,06,28,14.20
2016,06,01,06,29,14.20
2016,06,01,06,30,14.20
2016,06,01,06,31,14.20
2016,06,01,06,32,14.20
2016,06,01,06,33,14.20
2016,06,01,06,34,14.20
2016,06,01,06,35,14.20
2016,06,01,06,36,14.20
2016,06,01,06,37,14.20
2016,06,01,06,38,14.20
2016,06,01,06,39,14.20
2016,06,01,06,40,14.20
2016,06,01,06,41,14.20
2016,06,01,06,42,14.20
2016,06,01,06,43,14.20
2016,06,01,06,44,14.20
2016,06,01,06,45,14.20
2016,06,01,06,46,14.30
2016,06,01,06,47,14.30
2016,06,01,06,48,14.40
2016,06,01,06,49,14.50
2016,06,01,06,50,14.50
2016,06,01,06,51,14.60
2016,06,01,06,52,14.70
2016,06,01,06,53,14.80
2016,06,01,06,54,14.80
2016,06,01,06,55,14.80
2016,06,01,06,56,14.80
2016,06,01,06,57,14.80
2016,06,01,06,58,14.80
2016,06,01,06,59,14.80
2016,06,01,07,00,14.80
2016,06,01,07,01,14.80
2016,06,01,07,02,14.80
2016,06,01,07,03,14.70
2016,06,01,07,04,14.70
2016,06,01,07,05,14.60
2016,06,01,07,06,14.60
2016,06,01,07,07,14.60
2016,06,01,07,08,14.50
2016,06,01,07,09,14.50
2016,06,01,07,10,14.50
2016,06,01,07,11,14.50
2016,06,01,07,12,14.50
2016,06,01,07,13,14.50
2016,06,01,07,14,14.50
2016,06,01,07,15,14.50
2016,06,01,07,16,14.50
2016,06,01,07,17,14.50
2016,06,01,07,18,14.50
2016,06,01,07,19,14.60
2016,06,01,07,20,14.60
2016,06,01,07,21,14.60
2016,06,01,07,22,14.50
2016,06,01,07,23,14.50
2016,06,01,07,24,14.50
2016,06,01,07,25,14.40
2016,06,01,07,26,14.40
2016,06,01,07,27,14.40
2016,06,01,07,28,14.40
2016,06,01,07,29,14.30
2016,06,01,07,30,14.30
2016,06,01,07,31,14.30
2016,06,01,07,32,14.30
2016,06,01,07,33,14.20
2016,06,01,07,34,14.20
2016,06,01,07,35,14.20
2016,06,01,07,36,14.20
2016,06,01,07,37,14.20
2016,06,01,07,38,14.30
2016,06,01,07,39,14.30
2016,06,01,07,40,14.30
2016,06,01,07,41,14.30
2016,06,01,07,42,14.30
2016,06,01,07,43,14.30
2016,06,01,07,44,14.30
2016,06,01,07,45,14.30
2016,06,01,07,46,14.30
2016,06,01,07,47,14.30
2016,06,01,07,48,14.30
2016,06,01,07,49,14.30
2016,06,01,07,50,14.30
2016,06,01,07,51,14.40
2016,06,01,07,52,14.40
2016,06,01,07,53,14.40
2016,06,01,07,54,14.50
2016,06,01,07,55,14.60
2016,06,01,07,56,14.60
2016,06,01,07,57,14.70
2016,06,01,07,58,14.80
2016,06,01,07,59,14.80
2016,06,01,08,00,14.80
2016,06,01,08,01,14.80
2016,06,01,08,02,14.80
2016,06,01,08,03,14.80
2016,06,01,08,04,14.80
2016,06,01,08,05,14.80
2016,06,01,08,06,14.80
2016,06,01,08,07,14.80
2016,06,01,08,08,14.80
2016,06,01,08,09,14.80
2016,06,01,08,10,14.80
2016,06,01,08,11,14.80
2016,06,01,08,12,14.90
2016,06,01,08,13,14.90
2016,06,01,08,14,14.90
2016,06,01,08,15,14.90
2016,06,01,08,16,15.00
2016,06,01,08,17,15.00
2016,06,01,08,18,15.00
2016,06,01,08,19,15.00
2016,06,01,08,20,15.00
2016,06,01,08,21,15.00
2016,06,01,08,22,15.10
2016,06,01,08,23,15.10
2016,06,01,08,24,15.20
2016,06,01,08,25,15.20
2016,06,01,08,26,15.30
2016,06,01,08,27,15.40
2016,06,01,08,28,15.40
2016,06,01,08,29,15.50
2016,06,01,08,30,15.50
2016,06,01,08,31,15.50
2016,06,01,08,32,15.60
2016,06,01,08,33,15.60
2016,06,01,08,34,15.60
2016,06,01,08,35,15.70
2016,06,01,08,36,15.80
2016,06,01,08,37,15.80
2016,06,01,08,38,15.80
2016,06,01,08,39,15.80
2016,06,01,08,40,15.80
2016,06,01,08,41,15.80
2016,06,01,08,42,15.80
2016,06,01,08,43,15.80
2016,06,01,08,44,15.80
2016,06,01,08,45,15.80
2016,06,01,08,46,15.80
2016,06,01,08,47,15.80
2016,06,01,08,48,15.80
2016,06,01,08,49,15.80
2016,06,01,08,50,15.80
2016,06,01,08,51,15.80
2016,06,01,08,52,15.80
2016,06,01,08,53,15.80
2016,06,01,08,54,15.80
2016,06,01,08,55,15.80
2016,06,01,08,56,15.80
2016,06,01,08,57,15.80
2016,06,01,08,58,15.80
2016,06,01,08,59,15.80
2016,06,01,09,00,15.80
2016,06,01,09,01,15.80
2016,06,01,09,02,15.80
2016,06,01,09,03,15.90
2016,06,01,09,04,16.00
2016,06,01,09,05,16.10
2016,06,01,09,06,16.10
2016,06,01,09,07,16.10
2016,06,01,09,08,16.00
2016,06,01,09,09,15.90
2016,06,01,09,10,16.00
2016,06,01,09,11,16.10
2016,06,01,09,12,16.10
2016,06,01,09,13,16.10
2016,06,01,09,14,16.10
2016,06,01,09,15,16.10
2016,06,01,09,16,16.10
2016,06,01,09,17,16.00
2016,06,01,09,18,15.90
2016,06,01,09,19,15.90
2016,06,01,09,20,15.80
2016,06,01,09,21,15.70
2016,06,01,09,22,15.60
2016,06,01,09,23,15.60
2016,06,01,09,24,15.60
2016,06,01,09,25,15.60
2016,06,01,09,26,15.70
2016,06,01,09,27,15.80
2016,06,01,09,28,15.80
2016,06,01,09,29,15.80
2016,06,01,09,30,15.90
2016,06,01,09,31,16.00
2016,06,01,09,32,16.10
2016,06,01,09,33,16.10
2016,06,01,09,34,16.20
2016,06,01,09,35,16.30
2016,06,01,09,36,16.30
2016,06,01,09,37,16.30
2016,06,01,09,38,16.40
2016,06,01,09,39,16.40
2016,06,01,09,40,16.40
2016,06,01,09,41,16.40
2016,06,01,09,42,16.40
2016,06,01,09,43,16.40
2016,06,01,09,44,16.40
2016,06,01,09,45,16.40
2016,06,01,09,46,16.40
2016,06,01,09,47,16.50
2016,06,01,09,48,16.60
2016,06,01,09,49,16.70
2016,06,01,09,50,16.70
2016,06,01,09,51,16.80
2016,06,01,09,52,16.80
2016,06,01,09,53,16.80
2016,06,01,09,54,16.80
2016,06,01,09,55,16.80
2016,06,01,09,56,16.80
2016,06,01,09,57,16.80
2016,06,01,09,58,16.70
2016,06,01,09,59,16.70
2016,06,01,10,00,16.80
2016,06,01,10,01,16.80
2016,06,01,10,02,16.80
2016,06,01,10,03,16.80
2016,06,01,10,04,16.90
2016,06,01,10,05,16.90
2016,06,01,10,06,16.90
2016,06,01,10,07,17.00
2016,06,01,10,08,17.10
2016,06,01,10,09,17.20
2016,06,01,10,10,17.20
2016,06,01,10,11,17.20
2016,06,01,10,12,17.30
2016,06,01,10,13,17.30
2016,06,01,10,14,17.40
2016,06,01,10,15,17.40
2016,06,01,10,16,17.50
2016,06,01,10,17,17.50
2016,06,01,10,18,17.70
2016,06,01,10,19,17.70
2016,06,01,10,20,17.80
2016,06,01,10,21,17.90
2016,06,01,10,22,18.00
2016,06,01,10,23,18.10
2016,06,01,10,24,18.20
2016,06,01,10,25,18.30
2016,06,01,10,26,18.40
2016,06,01,10,27,18.50
2016,06,01,10,28,18.60
2016,06,01,10,29,18.70
2016,06,01,10,30,18.80
2016,06,01,10,31,18.90
2016,06,01,10,32,18.90
2016,06,01,10,33,18.90
2016,06,01,10,34,18.90
2016,06,01,10,35,18.90
2016,06,01,10,36,18.90
2016,06,01,10,37,18.80
2016,06,01,10,38,18.70
2016,06,01,10,39,18.70
2016,06,01,10,40,18.80
2016,06,01,10,41,18.80
2016,06,01,10,42,18.90
2016,06,01,10,43,18.80
2016,06,01,10,44,18.70
2016,06,01,10,45,18.70
2016,06,01,10,46,18.70
2016,06,01,10,47,18.70
2016,06,01,10,48,18.70
2016,06,01,10,49,18.70
2016,06,01,10,50,18.80
2016,06,01,10,51,18.80
2016,06,01,10,52,18.80
2016,06,01,10,53,18.70
2016,06,01,10,54,18.80
2016,06,01,10,55,18.90
2016,06,01,10,56,18.90
2016,06,01,10,57,18.90
2016,06,01,10,58,18.80
2016,06,01,10,59,18.70
2016,06,01,11,00,18.70
2016,06,01,11,01,18.60
2016,06,01,11,02,18.60
2016,06,01,11,03,18.60
2016,06,01,11,04,18.70
2016,06,01,11,05,18.70
2016,06,01,11,06,18.80
2016,06,01,11,07,18.80
2016,06,01,11,08,18.90
2016,06,01,11,09,18.90
2016,06,01,11,10,18.90
2016,06,01,11,11,19.00
2016,06,01,11,12,19.10
2016,06,01,11,13,19.10
2016,06,01,11,14,19.10
2016,06,01,11,15,19.10
2016,06,01,11,16,19.10
2016,06,01,11,17,19.10
2016,06,01,11,18,19.10
2016,06,01,11,19,19.20
2016,06,01,11,20,19.20
2016,06,01,11,21,19.30
2016,06,01,11,22,19.40
2016,06,01,11,23,19.50
2016,06,01,11,24,19.60
2016,06,01,11,25,19.70
2016,06,01,11,26,19.80
2016,06,01,11,27,19.80
2016,06,01,11,28,19.90
2016,06,01,11,29,19.90
2016,06,01,11,30,20.10
2016,06,01,11,31,20.20
2016,06,01,11,32,20.20
2016,06,01,11,33,20.20
2016,06,01,11,34,20.40
2016,06,01,11,35,20.50
2016,06,01,11,36,20.60
2016,06,01,11,37,20.70
2016,06,01,11,38,20.80
2016,06,01,11,39,20.90
2016,06,01,11,40,21.00
2016,06,01,11,41,21.10
2016,06,01,11,42,21.10
2016,06,01,11,43,21.00
2016,06,01,11,44,20.90
2016,06,01,11,45,20.90
2016,06,01,11,46,20.80
2016,06,01,11,47,20.90
2016,06,01,11,48,20.90
2016,06,01,11,49,21.00
2016,06,01,11,50,21.00
2016,06,01,11,51,21.10
2016,06,01,11,52,21.10
2016,06,01,11,53,21.20
2016,06,01,11,54,21.20
2016,06,01,11,55,21.30
2016,06,01,11,56,21.30
2016,06,01,11,57,21.30
2016,06,01,11,58,21.40
2016,06,01,11,59,21.40
2016,06,01,12,00,21.40
2016,06,01,12,01,21.30
2016,06,01,12,02,21.30
2016,06,01,12,03,21.30
2016,06,01,12,04,21.30
2016,06,01,12,05,21.40
2016,06,01,12,06,21.30
2016,06,01,12,07,21.30
2016,06,01,12,08,21.30
2016,06,01,12,09,21.30
2016,06,01,12,10,21.20
2016,06,01,12,11,21.10
2016,06,01,12,12,21.10
2016,06,01,12,13,21.10
2016,06,01,12,14,21.00
2016,06,01,12,15,21.00
2016,06,01,12,16,21.00
2016,06,01,12,17,21.10
2016,06,01,12,18,21.10
2016,06,01,12,19,21.10
2016,06,01,12,20,21.10
2016,06,01,12,21,21.20
2016,06,01,12,22,21.20
2016,06,01,12,23,21.30
2016,06,01,12,24,21.30
2016,06,01,12,25,21.30
2016,06,01,12,26,21.40
2016,06,01,12,27,21.50
2016,06,01,12,28,21.60
2016,06,01,12,29,21.60
2016,06,01,12,30,21.70
2016,06,01,12,31,21.70
2016,06,01,12,32,21.70
2016,06,01,12,33,21.60
2016,06,01,12,34,21.70
2016,06,01,12,35,21.70
2016,06,01,12,36,21.80
2016,06,01,12,37,21.80
2016,06,01,12,38,21.90
2016,06,01,12,39,21.90
2016,06,01,12,40,21.90
2016,06,01,12,41,21.90
2016,06,01,12,42,21.90
2016,06,01,12,43,22.00
2016,06,01,12,44,22.00
2016,06,01,12,45,22.00
2016,06,01,12,46,21.90
2016,06,01,12,47,21.90
2016,06,01,12,48,22.00
2016,06,01,12,49,22.00
2016,06,01,12,50,22.10
2016,06,01,12,51,22.20
2016,06,01,12,52,22.10
2016,06,01,12,53,22.10
2016,06,01,12,54,22.10
2016,06,01,12,55,22.10
2016,06,01,12,56,22.20
2016,06,01,12,57,22.20
2016,06,01,12,58,22.30
2016,06,01,12,59,22.40
2016,06,01,13,00,22.40
2016,06,01,13,01,22.20
2016,06,01,13,02,22.10
2016,06,01,13,03,22.10
2016,06,01,13,04,22.10
2016,06,01,13,05,22.10
2016,06,01,13,06,22.20
2016,06,01,13,07,22.30
2016,06,01,13,08,22.30
2016,06,01,13,09,22.40
2016,06,01,13,10,22.50
2016,06,01,13,11,22.50
2016,06,01,13,12,22.50
2016,06,01,13,13,22.30
2016,06,01,13,14,22.30
2016,06,01,13,15,22.40
2016,06,01,13,16,22.40
2016,06,01,13,17,22.50
2016,06,01,13,18,22.60
2016,06,01,13,19,22.60
2016,06,01,13,20,22.60
2016,06,01,13,21,22.70
2016,06,01,13,22,22.70
2016,06,01,13,23,22.70
2016,06,01,13,24,22.60
2016,06,01,13,25,22.60
2016,06,01,13,26,22.60
2016,06,01,13,27,22.50
2016,06,01,13,28,22.50
2016,06,01,13,29,22.50
2016,06,01,13,30,22.50
2016,06,01,13,31,22.50
2016,06,01,13,32,22.50
2016,06,01,13,33,22.50
2016,06,01,13,34,22.40
2016,06,01,13,35,22.40
2016,06,01,13,36,22.30
2016,06,01,13,37,22.30
2016,06,01,13,38,22.10
2016,06,01,13,39,22.00
2016,06,01,13,40,21.90
2016,06,01,13,41,21.90
2016,06,01,13,42,21.80
2016,06,01,13,43,21.70
2016,06,01,13,44,21.70
2016,06,01,13,45,21.70
2016,06,01,13,46,21.70
2016,06,01,13,47,21.60
2016,06,01,13,48,21.60
2016,06,01,13,49,21.60
2016,06,01,13,50,21.40
2016,06,01,13,51,21.30
2016,06,01,13,52,21.10
2016,06,01,13,53,21.00
2016,06,01,13,54,21.00
2016,06,01,13,55,21.00
2016,06,01,13,56,20.90
2016,06,01,13,57,20.90
2016,06,01,13,58,20.80
2016,06,01,13,59,20.80
2016,06,01,14,00,20.80
2016,06,01,14,01,20.70
2016,06,01,14,02,20.60
2016,06,01,14,03,20.60
2016,06,01,14,04,20.50
2016,06,01,14,05,20.50
2016,06,01,14,06,20.60
2016,06,01,14,07,20.60
2016,06,01,14,08,20.70
2016,06,01,14,09,20.80
2016,06,01,14,10,20.90
2016,06,01,14,11,21.00
2016,06,01,14,12,21.00
2016,06,01,14,13,21.10
2016,06,01,14,14,21.10
2016,06,01,14,15,21.10
2016,06,01,14,16,21.00
2016,06,01,14,17,21.10
2016,06,01,14,18,21.10
2016,06,01,14,19,21.10
2016,06,01,14,20,21.10
2016,06,01,14,21,21.00
2016,06,01,14,22,21.00
2016,06,01,14,23,20.90
2016,06,01,14,24,20.90
2016,06,01,14,25,20.80
2016,06,01,14,26,20.80
2016,06,01,14,27,20.70
2016,06,01,14,28,20.70
2016,06,01,14,29,20.60
2016,06,01,14,30,20.60
2016,06,01,14,31,20.60
2016,06,01,14,32,20.60
2016,06,01,14,33,20.60
2016,06,01,14,34,20.60
2016,06,01,14,35,20.60
2016,06,01,14,36,20.50
2016,06,01,14,37,20.50
2016,06,01,14,38,20.60
2016,06,01,14,39,20.60
2016,06,01,14,40,20.50
2016,06,01,14,41,20.50
2016,06,01,14,42,20.40
2016,06,01,14,43,20.40
2016,06,01,14,44,20.30
2016,06,01,14,45,20.20
2016,06,01,14,46,20.20
2016,06,01,14,47,20.20
2016,06,01,14,48,20.20
2016,06,01,14,49,20.20
2016,06,01,14,50,20.20
2016,06,01,14,51,20.20
2016,06,01,14,52,20.20
2016,06,01,14,53,20.20
2016,06,01,14,54,20.30
2016,06,01,14,55,20.30
2016,06,01,14,56,20.30
2016,06,01,14,57,20.20
2016,06,01,14,58,20.20
2016,06,01,14,59,20.20
2016,06,01,15,00,20.20
2016,06,01,15,01,20.20
2016,06,01,15,02,20.20
2016,06,01,15,03,20.20
2016,06,01,15,04,20.10
2016,06,01,15,05,20.10
2016,06,01,15,06,20.10
2016,06,01,15,07,20.00
2016,06,01,15,08,19.90
2016,06,01,15,09,19.90
2016,06,01,15,10,19.90
2016,06,01,15,11,19.90
2016,06,01,15,12,19.90
2016,06,01,15,13,19.90
2016,06,01,15,14,19.90
2016,06,01,15,15,19.90
2016,06,01,15,16,19.90
2016,06,01,15,17,19.90
2016,06,01,15,18,19.90
2016,06,01,15,19,19.90
2016,06,01,15,20,19.90
2016,06,01,15,21,20.00
2016,06,01,15,22,20.10
2016,06,01,15,23,20.10
2016,06,01,15,24,20.10
2016,06,01,15,25,20.10
2016,06,01,15,26,20.10
2016,06,01,15,27,20.00
2016,06,01,15,28,19.90
2016,06,01,15,29,19.90
2016,06,01,15,30,19.80
2016,06,01,15,31,19.70
2016,06,01,15,32,19.60
2016,06,01,15,33,19.50
2016,06,01,15,34,19.50
2016,06,01,15,35,19.50
2016,06,01,15,36,19.60
2016,06,01,15,37,19.60
2016,06,01,15,38,19.60
2016,06,01,15,39,19.60
2016,06,01,15,40,19.70
2016,06,01,15,41,19.60
2016,06,01,15,42,19.60
2016,06,01,15,43,19.60
2016,06,01,15,44,19.60
2016,06,01,15,45,19.60
2016,06,01,15,46,19.50
2016,06,01,15,47,19.50
2016,06,01,15,48,19.50
2016,06,01,15,49,19.40
2016,06,01,15,50,19.40
2016,06,01,15,51,19.40
2016,06,01,15,52,19.40
2016,06,01,15,53,19.50
2016,06,01,15,54,19.40
2016,06,01,15,55,19.40
2016,06,01,15,56,19.40
2016,06,01,15,57,19.40
2016,06,01,15,58,19.50
2016,06,01,15,59,19.50
2016,06,01,16,00,19.60
2016,06,01,16,01,19.60
2016,06,01,16,02,19.50
2016,06,01,16,03,19.50
2016,06,01,16,04,19.50
2016,06,01,16,05,19.50
2016,06,01,16,06,19.40
2016,06,01,16,07,19.40
2016,06,01,16,08,19.20
2016,06,01,16,09,19.10
2016,06,01,16,10,19.10
2016,06,01,16,11,19.00
2016,06,01,16,12,18.90
2016,06,01,16,13,18.90
2016,06,01,16,14,18.80
2016,06,01,16,15,18.80
2016,06,01,16,16,18.80
2016,06,01,16,17,18.80
2016,06,01,16,18,18.80
2016,06,01,16,19,18.90
2016,06,01,16,20,18.90
2016,06,01,16,21,18.90
2016,06,01,16,22,18.90
2016,06,01,16,23,18.90
2016,06,01,16,24,18.90
2016,06,01,16,25,18.90
2016,06,01,16,26,18.90
2016,06,01,16,27,19.10
2016,06,01,16,28,19.10
2016,06,01,16,29,19.10
2016,06,01,16,30,19.10
2016,06,01,16,31,19.20
2016,06,01,16,32,19.20
2016,06,01,16,33,19.20
2016,06,01,16,34,19.20
2016,06,01,16,35,19.30
2016,06,01,16,36,19.30
2016,06,01,16,37,19.30
2016,06,01,16,38,19.40
2016,06,01,16,39,19.50
2016,06,01,16,40,19.50
2016,06,01,16,41,19.50
2016,06,01,16,42,19.40
2016,06,01,16,43,19.40
2016,06,01,16,44,19.40
2016,06,01,16,45,19.50
2016,06,01,16,46,19.60
2016,06,01,16,47,19.60
2016,06,01,16,48,19.60
2016,06,01,16,49,19.70
2016,06,01,16,50,19.70
2016,06,01,16,51,19.60
2016,06,01,16,52,19.50
2016,06,01,16,53,19.40
2016,06,01,16,54,19.40
2016,06,01,16,55,19.40
2016,06,01,16,56,19.40
2016,06,01,16,57,19.40
2016,06,01,16,58,19.50
2016,06,01,16,59,19.50
2016,06,01,17,00,19.60
2016,06,01,17,01,19.60
2016,06,01,17,02,19.70
2016,06,01,17,03,19.70
2016,06,01,17,04,19.70
2016,06,01,17,05,19.70
2016,06,01,17,06,19.70
2016,06,01,17,07,19.80
2016,06,01,17,08,19.80
2016,06,01,17,09,19.80
2016,06,01,17,10,19.80
2016,06,01,17,11,19.70
2016,06,01,17,12,19.70
2016,06,01,17,13,19.60
2016,06,01,17,14,19.60
2016,06,01,17,15,19.50
2016,06,01,17,16,19.50
2016,06,01,17,17,19.40
2016,06,01,17,18,19.40
2016,06,01,17,19,19.40